Simultaneous Nadir Overpasses (SNOs) Predictions

Prediction of SNOs between LANDSAT-8 and METOP-A Satellite Orbit:

Table of predicted SNOs for the next 14.0 days since TLE Epoch: 6/22/2019
Index Date (LANDSAT-8) Time (LANDSAT-8) Lat,Lon (LANDSAT-8) SZA (LANDSAT-8 ) Date (METOP-A) Time (METOP-A) Lat,Lon (METOP-A) SZA (METOP-A ) Distance(km) Time Diff (sec)
1 06/22/2019 10:54:56 -81.48,-117.10 119.21 06/22/2019 10:54:53 -81.47,-116.91 119.20 3.25 3
2 06/22/2019 11:44:23 81.47, 50.29 60.76 06/22/2019 11:45:34 81.47, 50.46 60.81 2.92 71
3 06/25/2019 05:39:46 81.47, 141.44 60.78 06/25/2019 05:38:38 81.47, 141.48 60.76 0.73 68
4 06/25/2019 06:29:12 -81.46, -50.99 119.23 06/25/2019 06:29:17 -81.47, -50.96 119.22 0.97 5
5 06/28/2019 01:14:01 81.47,-152.10 60.86 06/28/2019 01:13:01 81.47,-152.21 60.83 1.84 60
6 06/28/2019 02:03:28 -81.46, 15.49 119.15 06/28/2019 02:03:41 -81.47, 15.37 119.15 2.01 13
7 06/30/2019 20:48:17 81.47, -85.67 61.00 06/30/2019 20:47:24 81.47, -85.51 60.99 2.72 53
8 06/30/2019 21:37:44 -81.47, 81.94 119.01 06/30/2019 21:38:04 -81.47, 82.10 118.98 2.59 20
9 07/03/2019 16:22:33 81.47, -19.26 61.18 07/03/2019 16:21:48 81.47, -19.22 61.17 0.91 45




NCC Satellite Simultaneous Nadir Overpasses (SNOs) Prediction Service
